Regional Weather Roundup
Issued by NWS

Home | Current Version | Previous Version | Text Only | Print | Product List | Glossary Off
Versions: 1 2 3 4 5 6 7 8 9 10 11 12 13 14 15 16 17 18 19 20 21 22 23 24 25 26 27 28 29 30 31 32 33 34 35 36 37 38 39 40 41 42 43 44 45 46 47 48 49 50

000
ASUS43 KDTX 271910
RWRMI
MICHIGAN HOURLY REGIONAL WEATHER ROUNDUP
NATIONAL WEATHER SERVICE DETROIT/PONTIAC MI
300 PM EDT WED MAY 27 2015

NOTE: "FAIR" INDICATES FEW OR NO CLOUDS BELOW 12,000 FEET WITH NO
SIGNIFICANT WEATHER AND/OR OBSTRUCTION TO VISIBILITY.

MIZ047>049-052>055-059>063-066>070-074>076-081>083-272000-
SOUTHEAST LOWER MICHIGAN

CITY           SKY/WX    TMP DP  RH WIND       PRES   REMARKS
ADRIAN         LGT RAIN  72  63  73 SW16G24   29.99R
ALMA           PTSUNNY   73  59  61 W17G24    29.93R
ANN ARBOR      PTSUNNY   76  60  57 SW20G28   29.95R
BAD AXE        MOSUNNY   78  54  42 W24G35    29.89S
CARO           PTSUNNY   76  58  52 W20G29    29.90R
DETROIT CITY   PTSUNNY   70  61  73 S13       29.95S
DETROIT        CLOUDY    74  62  66 S22G28    29.97S
FLINT          CLOUDY    75  59  57 W12       29.93R
GROSSE ILE     CLOUDY    68  64  88 SW6       29.97F
HILLSDALE      CLOUDY    73  63  70 SW10G17   30.00R
HOWELL         LGT RAIN  68  62  80 W13       29.95R

CITY           SKY/WX    TMP DP  RH WIND       PRES   REMARKS
JACKSON        LGT RAIN  68  60  75 W18G25    29.97R
LAMBERTVILLE   CLOUDY    70  64  83 W7        29.99F
LANSING        PTSUNNY   75  56  51 W21G30    29.94R
LAPEER         LGT RAIN  70  60  72 SW9G17    29.94R
MASON          PTSUNNY   65  62  87 SW7       29.96S
MONROE         CLOUDY    70  64  83 SW10      29.96F
MT. CLEMENS    PTSUNNY   73  65  76 S21       29.91F
PONTIAC        TSTM      68  63  84 SW23G30   29.96R
PORT HOPE        N/A     79  58  48 W10G25    29.85F
PORT HURON     LGT RAIN  73  68  83 S13       29.93S
TRI CITIES     PTSUNNY   76  57  51 W20G33    29.91R
MIDLAND        FAIR      73  60  63 W12G21    29.90R
TROY           PTSUNNY   79  63  58 SW16G25   29.94F
SAGINAW HB     MOSUNNY   77  55  47 SW23G30   29.90R
$$
MIZ043>046-050>051-056>058-064>065-071>073-077>080-272000-
SOUTHWEST LOWER MICHIGAN

CITY           SKY/WX    TMP DP  RH WIND       PRES   REMARKS
BATTLE CREEK   PTSUNNY   70  64  81 W9        29.97R
BENTON HARBOR  PTSUNNY   68  59  73 W10       29.99R
BIG RAPIDS     CLOUDY    65  56  74 NW10G23   29.93R
COLDWATER      CLOUDY    71  60  69 SW14G21   29.99R
FREMONT        CLOUDY    65  58  79 W13G22    29.95R
HOLLAND        CLOUDY    65  59  81 SW8       29.97S
GRAND RAPIDS   PTSUNNY   72  58  61 W21G32    29.96R
IONIA          CLOUDY    74  57  55 W22G33    29.94R
KALAMAZOO      PTSUNNY   73  56  54 W20G26    29.97R
LUDINGTON      CLOUDY    61  54  77 NW7       29.96R
MARSHALL       CLOUDY    66  63  89 W6        29.96F
MOUNT PLEASANT CLOUDY    71  59  64 SW16G22   29.92R
MUSKEGON       PTSUNNY   64  57  78 W16G22    29.97R
SOUTH HAVEN    CLOUDY    64  56  77 W5        29.99R
$$
MIZ016>042-272000-
NORTHERN LOWER MICHIGAN

CITY           SKY/WX    TMP DP  RH WIND       PRES   REMARKS
ALPENA         MOSUNNY   75  55  49 W16G29    29.82R
BEAVER ISLAND  CLOUDY    54  54  98 W12       29.88R
BELLAIRE       DRIZZLE   58  56  92 W5        29.91R
CADILLAC       CLOUDY    63  56  78 W13G21    29.93R
CHARLEVOIX     CLOUDY    56  56 100 W14       29.92R
FRANKFORT      LGT RAIN  60  54  82 W7        29.93S
GAYLORD        LGT RAIN  59  58  96 W12G22    29.89R
GRAYLING       CLOUDY    63  55  77 W10G20    29.91R
HARBOR SPRINGS DRZL/FOG  52  52  99 W7        29.88R VSB 3/4
HOUGHTON LAKE  CLOUDY    67  55  65 W21G29    29.91R
MANISTEE       CLOUDY    55  52  88 NW5       29.96R
OSCODA         SUNNY     78  58  50 SW23G31   29.83F
PELLSTON       LGT RAIN  56  54  93 W9        29.87R
ROGERS CITY    CLOUDY    65  56  74 W17G25    29.84R
TRAVERSE CITY  LGT RAIN  61  57  87 W10       29.91R FOG
$$
MIZ007>008-015-272000-
EASTERN UPPER MICHIGAN

CITY           SKY/WX    TMP DP  RH WIND       PRES   REMARKS
KINROSS        CLOUDY    55  55 100 W12       29.80R
MACKINAC ISLAN LGT RAIN  51  51 100 SW13G23   29.84R
NEWBERRY       CLOUDY    59  57  91 W14G20    29.83R
S. S. MARIE    LGT RAIN  50  47  89 W18G26    29.79R
MUNISING         N/A     58  54  86 CALM      29.84R
$$
MIZ004>006-011>014-085-272000-
CENTRAL UPPER MICHIGAN

CITY           SKY/WX    TMP DP  RH WIND       PRES   REMARKS
MANISTIQUE     CLOUDY    62  57  84 W7        29.85R
ESCANABA       CLOUDY    66  57  72 S9        29.87R
MENOMINEE      PTSUNNY   70  57  64 W7        29.89R
SAWYER-GWINN   PTSUNNY   64  57  77 W5        29.86R
$$
MIZ001>003-009>011-084-272000-
WESTERN UPPER MICHIGAN

CITY           SKY/WX    TMP DP  RH WIND       PRES   REMARKS
IRON MOUNTAIN  MOSUNNY   75  59  57 W7        29.85S
HOUGHTON       MOSUNNY   71  55  56 NW15      29.82R
COPPER HARBOR    N/A     56  48  74 N15       29.80R
IRONWOOD       MOSUNNY   75  54  46 W9        29.85R
$$

ABBREVIATIONS USED IN REMARKS
   TC - TEMPERATURE IN CELSIUS
  WCI - WIND CHILL INDEX
   HX - HEAT INDEX
  VSB - VISIBILITY



USA.gov is the U.S. government's official web portal to all federal, state and local government web resources and services.